Location: Marcé
(47.5801°N, 0.3280°W)
Time: 23:04:40
(UTC+01:00)

S-56A Canister/Altair - Pass Details

Date: 09 December 2021
Orbit: 633 x 2499 km, 38.9° (Epoch: 16 January)

Event Time Altitude Azimuth Distance (km) Brightness Sun altitude
Rises 20:46:36 0° 197° (SSW) 6,095 12.3 -35.5°
Reaches altitude 10° 20:52:20 10° 183° (S) 4,921 11.6 -36.5°
Enters shadow 20:56:54 17° 165° (SSE) 4,161 11.0 -37.2°
Maximum altitude 21:00:50 20° 144° (SE) 3,768 - -37.9°
Drops below altitude 10° 21:07:55 10° 104° (ESE) 4,030 - -39.1°
Sets 21:11:54 0° 88° (E) 4,700 - -39.7°
